User: anonymous   Login
Location: Unspecified
(0.0000°N, 0.0000°E)
Time: 07:23:35
(UTC+00:00)
Language:

DOVE 4 - Orbit

View from above orbital plane
View from above orbital plane
View from above satellite
View from above satellite

Ground track
Ground track

The orbit data is extracted from the following two-line orbital elements,

1 39430U 13066Q   20048.10478454  .00000100  00000-0  27275-4 0  9990
2 39430  97.7785 354.0522 0150131 206.5466 152.7996 14.59348351332106
Epoch (UTC): 17 February 2020 02:30:53
Eccentricity: 0.0150131
inclination: 97.7785°
perigee height: 589 km
apogee height: 801 km
right ascension of ascending node: 354.0522°
argument of perigee: 206.5466°
revolutions per day: 14.59348351
mean anomaly at epoch: 152.7996°
orbit number at epoch: 33210

The dashed part of the orbit path shows where the satellite is in the earth's shadow,  

DLR